Hourly Weather Northampton

Today, 11 July, Saturday

Time Temperature Precipitation Wind Pressure Humidity
00:00 +9°C° 0 mm 3 mps 758 mmHg 88%
01:00 +8°C° 0 mm 3 mps 758 mmHg 90%
02:00 +8°C° 0 mm 3 mps 758 mmHg 92%
03:00 +8°C° 0 mm 3 mps 758 mmHg 94%
04:00 +9°C° 0 mm 3 mps 759 mmHg 92%
05:00 +10°C° 0 mm 4 mps 759 mmHg 89%
06:00 +10°C° 0 mm 4 mps 759 mmHg 86%
07:00 +12°C° 0 mm 4 mps 760 mmHg 82%
08:00 +13°C° 0 mm 4 mps 760 mmHg 77%
09:00 +15°C° 0 mm 5 mps 761 mmHg 72%
10:00 +15°C° 0 mm 5 mps 761 mmHg 70%
11:00 +16°C° 0 mm 5 mps 761 mmHg 68%
12:00 +17°C° 0 mm 5 mps 761 mmHg 66%
13:00 +18°C° 0.1 mm 4 mps 761 mmHg 65%
14:00 +19°C° 0.1 mm 4 mps 761 mmHg 64%
15:00 +19°C° 0.1 mm 4 mps 761 mmHg 63%
16:00 +18°C° 0 mm 4 mps 761 mmHg 66%
17:00 +18°C° 0 mm 3 mps 761 mmHg 69%
18:00 +18°C° 0 mm 3 mps 761 mmHg 72%
19:00 +16°C° 0 mm 3 mps 761 mmHg 74%
20:00 +13°C° 0 mm 3 mps 761 mmHg 77%
21:00 +12°C° 0 mm 2 mps 762 mmHg 79%
22:00 +10°C° 0 mm 2 mps 762 mmHg 79%
23:00 +10°C° 0 mm 2 mps 762 mmHg 80%

Tomorrow, 12 July, Sunday

Time Temperature Precipitation Wind Pressure Humidity
00:00 +9°C° 0 mm 2 mps 762 mmHg 80%
01:00 +10°C° 0 mm 1 mps 762 mmHg 82%
02:00 +9°C° 0 mm 1 mps 762 mmHg 84%
03:00 +9°C° 0 mm 1 mps 762 mmHg 86%
04:00 +10°C° 0 mm 1 mps 762 mmHg 84%
05:00 +11°C° 0 mm 1 mps 762 mmHg 83%
06:00 +11°C° 0 mm 1 mps 762 mmHg 82%
07:00 +13°C° 0 mm 1 mps 762 mmHg 76%
08:00 +15°C° 0 mm 1 mps 762 mmHg 71%
09:00 +16°C° 0 mm 1 mps 762 mmHg 66%
10:00 +18°C° 0 mm 1 mps 762 mmHg 63%
11:00 +19°C° 0 mm 1 mps 762 mmHg 60%
12:00 +19°C° 0 mm 2 mps 762 mmHg 57%
13:00 +19°C° 0 mm 2 mps 762 mmHg 56%
14:00 +19°C° 0 mm 2 mps 762 mmHg 56%
15:00 +20°C° 0 mm 2 mps 761 mmHg 55%
16:00 +21°C° 0 mm 1 mps 761 mmHg 58%
17:00 +21°C° 0 mm 1 mps 761 mmHg 62%
18:00 +20°C° 0 mm 1 mps 761 mmHg 66%
19:00 +18°C° 0 mm 1 mps 761 mmHg 69%
20:00 +16°C° 0 mm 1 mps 761 mmHg 72%
21:00 +14°C° 0 mm 1 mps 761 mmHg 76%
22:00 +13°C° 0 mm 1 mps 761 mmHg 78%
23:00 +13°C° 0 mm 1 mps 761 mmHg 80%

Day after tomorrow, 13 July, Monday

Time Temperature Precipitation Wind Pressure Humidity
00:00 +12°C° 0 mm 1 mps 761 mmHg 82%
01:00 +12°C° 0 mm 1 mps 760 mmHg 84%
02:00 +11°C° 0 mm 1 mps 760 mmHg 87%
03:00 +10°C° 0 mm 2 mps 760 mmHg 89%
04:00 +12°C° 0 mm 2 mps 760 mmHg 88%
05:00 +12°C° 0 mm 2 mps 759 mmHg 87%
06:00 +13°C° 0 mm 2 mps 759 mmHg 86%
07:00 +13°C° 0 mm 3 mps 759 mmHg 79%
08:00 +16°C° 0 mm 3 mps 759 mmHg 71%
09:00 +18°C° 0 mm 3 mps 759 mmHg 64%
10:00 +18°C° 0 mm 4 mps 759 mmHg 64%
11:00 +19°C° 0 mm 4 mps 758 mmHg 65%
12:00 +20°C° 0 mm 5 mps 758 mmHg 65%
13:00 +19°C° 0 mm 4 mps 758 mmHg 68%
14:00 +19°C° 0 mm 4 mps 757 mmHg 72%
15:00 +18°C° 0 mm 3 mps 757 mmHg 75%
16:00 +18°C° 0 mm 4 mps 757 mmHg 76%
17:00 +18°C° 0 mm 4 mps 756 mmHg 76%
18:00 +19°C° 0 mm 4 mps 756 mmHg 76%
19:00 +17°C° 0.1 mm 4 mps 756 mmHg 80%
20:00 +15°C° 0.1 mm 4 mps 756 mmHg 84%
21:00 +14°C° 0.1 mm 4 mps 756 mmHg 88%
22:00 +14°C° 0.2 mm 4 mps 755 mmHg 90%
23:00 +13°C° 0.2 mm 4 mps 755 mmHg 92%

14 July, Tuesday

Time Temperature Precipitation Wind Pressure Humidity
00:00 +13°C° 0.2 mm 4 mps 755 mmHg 94%
01:00 +13°C° 0.1 mm 4 mps 754 mmHg 94%
02:00 +13°C° 0.1 mm 3 mps 754 mmHg 95%
03:00 +13°C° 0.1 mm 3 mps 754 mmHg 96%
04:00 +14°C° 0 mm 3 mps 753 mmHg 96%
05:00 +14°C° 0 mm 3 mps 753 mmHg 95%
06:00 +14°C° 0 mm 3 mps 753 mmHg 95%
07:00 +15°C° 0 mm 4 mps 753 mmHg 91%
08:00 +17°C° 0 mm 4 mps 753 mmHg 87%
09:00 +17°C° 0 mm 4 mps 753 mmHg 83%
10:00 +16°C° 0.1 mm 5 mps 753 mmHg 83%
11:00 +15°C° 0.1 mm 5 mps 753 mmHg 84%
12:00 +15°C° 0.1 mm 5 mps 752 mmHg 85%
13:00 +15°C° 0 mm 6 mps 752 mmHg 83%
14:00 +15°C° 0 mm 6 mps 752 mmHg 81%
15:00 +16°C° 0 mm 6 mps 752 mmHg 79%
16:00 +15°C° 0 mm 5 mps 751 mmHg 80%
17:00 +15°C° 0 mm 5 mps 751 mmHg 81%
18:00 +15°C° 0 mm 4 mps 751 mmHg 82%
19:00 +15°C° 0 mm 5 mps 751 mmHg 80%
20:00 +15°C° 0 mm 5 mps 750 mmHg 77%
21:00 +15°C° 0 mm 6 mps 750 mmHg 75%
22:00 +14°C° 0 mm 6 mps 750 mmHg 78%
23:00 +14°C° 0 mm 5 mps 750 mmHg 81%

15 July, Wednesday

Time Temperature Precipitation Wind Pressure Humidity
00:00 +13°C° 0 mm 5 mps 749 mmHg 85%
01:00 +13°C° 0 mm 5 mps 749 mmHg 84%
02:00 +13°C° 0 mm 5 mps 749 mmHg 83%
03:00 +13°C° 0 mm 5 mps 749 mmHg 82%
04:00 +13°C° 0 mm 5 mps 749 mmHg 82%
05:00 +13°C° 0 mm 5 mps 750 mmHg 82%
06:00 +13°C° 0 mm 5 mps 750 mmHg 82%
07:00 +14°C° 0 mm 6 mps 750 mmHg 80%
08:00 +15°C° 0 mm 6 mps 750 mmHg 79%
09:00 +15°C° 0 mm 7 mps 751 mmHg 77%
10:00 +16°C° 0.1 mm 7 mps 751 mmHg 75%
11:00 +17°C° 0.1 mm 7 mps 752 mmHg 73%
12:00 +18°C° 0.1 mm 7 mps 752 mmHg 71%
13:00 +18°C° 0.1 mm 7 mps 752 mmHg 70%
14:00 +18°C° 0.1 mm 7 mps 753 mmHg 70%
15:00 +18°C° 0.1 mm 7 mps 753 mmHg 70%
16:00 +19°C° 0 mm 6 mps 753 mmHg 71%
17:00 +19°C° 0 mm 6 mps 753 mmHg 72%
18:00 +17°C° 0 mm 5 mps 754 mmHg 73%
19:00 +16°C° 0 mm 5 mps 754 mmHg 75%
20:00 +14°C° 0 mm 4 mps 755 mmHg 78%
21:00 +13°C° 0 mm 3 mps 755 mmHg 80%
22:00 +12°C° 0 mm 3 mps 755 mmHg 84%
23:00 +12°C° 0 mm 3 mps 755 mmHg 87%

16 July, Thursday

Time Temperature Precipitation Wind Pressure Humidity
00:00 +11°C° 0 mm 3 mps 756 mmHg 91%
01:00 +11°C° 0 mm 3 mps 755 mmHg 92%
02:00 +11°C° 0 mm 3 mps 755 mmHg 93%
03:00 +11°C° 0 mm 3 mps 755 mmHg 94%
04:00 +12°C° 0 mm 3 mps 755 mmHg 93%
05:00 +12°C° 0 mm 4 mps 755 mmHg 92%
06:00 +13°C° 0 mm 4 mps 756 mmHg 91%
07:00 +15°C° 0 mm 4 mps 756 mmHg 87%
08:00 +16°C° 0 mm 5 mps 756 mmHg 82%
09:00 +19°C° 0 mm 5 mps 756 mmHg 78%
10:00 +20°C° 0 mm 5 mps 756 mmHg 77%
11:00 +21°C° 0 mm 5 mps 755 mmHg 75%
12:00 +22°C° 0 mm 5 mps 755 mmHg 73%
13:00 +22°C° 0.1 mm 5 mps 755 mmHg 74%
14:00 +22°C° 0.1 mm 6 mps 755 mmHg 75%
15:00 +22°C° 0.1 mm 6 mps 754 mmHg 77%
16:00 +21°C° 0.1 mm 5 mps 754 mmHg 77%
17:00 +21°C° 0.1 mm 5 mps 754 mmHg 78%
18:00 +21°C° 0.1 mm 5 mps 754 mmHg 79%
19:00 +20°C° 0 mm 5 mps 754 mmHg 82%
20:00 +19°C° 0 mm 4 mps 754 mmHg 85%
21:00 +18°C° 0 mm 4 mps 754 mmHg 89%
22:00 +16°C° 0 mm 5 mps 754 mmHg 87%
23:00 +16°C° 0 mm 5 mps 753 mmHg 86%
Show more